Flag for Indonesia Weather past 2 weeks in Makassar, South Sulawesi, Indonesia

Now
90 °F

Passing clouds.


Feels Like: 93 °F
Forecast: 74 / 88 °F
Wind: 10 mph from Northwest

Location: Ujung Pandang / Hasanuddin

Current Time: Aug 30, 2014 at 12:13:08 PM

Latest Report: Aug 30, 2014 at 12:00 PM


Visibility: N/A

Pressure: 29.83 "Hg

Humidity: 49%

Dew point: 68 °F

Location of MakassarLocation

Historic Weather in Makassar — Graph

°F

Makassar temperature yesterday

Maximum temperature yesterday: 93 °F (at 12:30 PM)
Minimum temperature yesterday: 66 °F (at 6:00 AM)
Average temperature yesterday: 80 °F

Past Weeks' High & Low Weather Summary

 TemperatureHumidityPressure
High95 °F (Aug 25, 1:00 PM)100% (Aug 17, 2:00 AM)29.95 "Hg (Aug 17, 2:00 AM)
Low64 °F (Aug 25, 6:30 AM)32% (Aug 25, 12:00 PM)29.74 "Hg (Aug 25, 4:00 PM)
Average80 °F69%29.85 "Hg
* Reported Aug 15 11:00 AM — Aug 30 11:00 AM, Makassar, Weather by CustomWeather, © 2014

Note: Actual official high and low records may vary slightly from our data, if they occured in-between our weather recording intervals... More about our weather records

Advertising

Makassar weather history for previous 24 hours

 ConditionsComfort  
Time TempWeatherWind HumidityBarometerVisibility
11:00 AM
Aug 30
90 °FPassing clouds.8 mph46%29.86 "HgN/A
10:30 AM90 °FPassing clouds.5 mph41%29.89 "HgN/A
10:00 AM90 °FPassing clouds.5 mph43%29.89 "HgN/A
9:30 AM90 °FPassing clouds.2 mph41%29.89 "Hg6 mi
9:00 AM88 °FPassing clouds.3 mph46%29.89 "Hg6 mi
8:00 AM82 °FPassing clouds.3 mph58%29.92 "Hg6 mi
7:30 AM79 °FPassing clouds.2 mph74%29.89 "Hg6 mi
7:00 AM73 °FPassing clouds.3 mph83%29.89 "Hg6 mi
6:30 AM70 °FPassing clouds.3 mph88%29.89 "Hg6 mi
6:00 AM72 °FPassing clouds.2 mph83%29.86 "Hg5 mi
5:30 AM72 °FPassing clouds.3 mph83%29.86 "Hg5 mi
5:00 AM72 °FPassing clouds.2 mph78%29.86 "Hg5 mi
3:00 AM72 °FPassing clouds.3 mph83%29.86 "Hg5 mi
2:30 AM72 °FPassing clouds.3 mph83%29.86 "Hg5 mi
2:00 AM72 °FPassing clouds.3 mph83%29.86 "Hg5 mi
1:30 AM72 °FPassing clouds.3 mph83%29.86 "Hg5 mi
1:00 AM72 °FPassing clouds.3 mph83%29.89 "Hg5 mi
12:30 AM73 °FPassing clouds.5 mph78%29.89 "Hg5 mi
12:00 AM73 °FPassing clouds.5 mph83%29.89 "Hg5 mi
11:30 PM
Aug 29
73 °FPassing clouds.3 mph83%29.89 "Hg5 mi
11:00 PM73 °FPassing clouds.3 mph83%29.89 "Hg5 mi
10:30 PM75 °FPassing clouds.3 mph78%29.86 "Hg5 mi
10:00 PM75 °FPassing clouds.3 mph78%29.86 "Hg5 mi
9:30 PM77 °FPassing clouds.2 mph79%29.86 "Hg5 mi
9:00 PM79 °FPassing clouds.3 mph74%29.86 "Hg5 mi
8:30 PM79 °FPassing clouds.3 mph70%29.86 "Hg5 mi
8:00 PM81 °FPassing clouds.5 mph66%29.83 "Hg5 mi
7:30 PM82 °FPassing clouds.8 mph62%29.83 "Hg5 mi
7:00 PM84 °FPassing clouds.6 mph62%29.83 "Hg5 mi
6:30 PM86 °FPassing clouds.3 mph55%29.80 "Hg5 mi
6:00 PM88 °FPassing clouds.3 mph49%29.80 "Hg5 mi
5:30 PM88 °FPassing clouds.5 mph49%29.80 "Hg6 mi
5:00 PM90 °FPassing clouds.6 mph46%29.80 "Hg6 mi
4:30 PM90 °FPassing clouds.6 mph46%29.80 "Hg6 mi
4:00 PM91 °FPassing clouds.7 mph44%29.80 "Hg6 mi
3:30 PM91 °FPassing clouds.9 mph46%29.80 "Hg6 mi
3:00 PM91 °FPassing clouds.12 mph49%29.80 "Hg6 mi
2:30 PM91 °FPassing clouds.13 mph49%29.80 "Hg6 mi
2:00 PM91 °FPassing clouds.13 mph46%29.80 "HgN/A
1:30 PM93 °FPassing clouds.12 mph44%29.80 "HgN/A
1:00 PM91 °FPassing clouds.12 mph46%29.83 "HgN/A
12:30 PM93 °FPassing clouds.10 mph47%29.83 "HgN/A
12:00 PM91 °FPassing clouds.9 mph46%29.83 "HgN/A
Weather by CustomWeather, © 2014

See weather overviewHow to use our weather pages